Miscellaneous Local Product
Issued by NWS Hastings, NE

Home | Current Version | Previous Version | Graphics & Text | Print | Product List | Glossary On
Versions: 1 2 3 4 5 6 7 8 9 10 11 12 13 14 15 16 17 18 19 20 21 22 23 24 25 26 27 28 29 30 31 32 33 34 35 36 37 38 39 40 41 42 43 44 45 46 47 48 49 50
000
AXUS43 KGID 281102
MISGRI

GID CWA HOURLY WEATHER ROUNDUP
NATIONAL WEATHER SERVICE HASTINGS NE
600 AM CDT SAT MAY 28 2016

NOTE: "FAIR" INDICATES FEW OR NO CLOUDS BELOW 12,000 FEET WITH NO
SIGNIFICANT WEATHER AND/OR OBSTRUCTIONS TO VISIBILITY.

...SOUTH CENTRAL NEBRASKA...

CITY           SKY/WX    TMP DP  RH WIND       PRES   REMARKS
GRAND ISLAND   PTCLDY    55  53  93 W8        29.77R
HASTINGS       MOCLDY    56  54  93 NW7       29.76R
KEARNEY        CLOUDY    55  54  94 NW6       29.79R
ORD            LGT RAIN  56  54  93 NW10      29.77S
YORK           CLOUDY    55  55 100 NW3       29.75R
AURORA         PTCLDY    56  55  99 W6        29.75R
LEXINGTON      CLOUDY    55  53  92 NW7       29.82R
HOLDREGE       CLOUDY    56  54  95 NW7       29.79R
HEBRON         CLOUDY    55  54  97 CALM      29.76S

...NEBRASKA PANHANDLE...

CITY           SKY/WX    TMP DP  RH WIND       PRES   REMARKS
CHADRON        CLEAR     37  35  92 S3        29.89S
ALLIANCE       FOG       37  36  96 W6        29.90R VSB 1/2 WCI  32
SCOTTSBLUFF    CLEAR     38  36  92 NW3       29.91S
SIDNEY         CLEAR     40  38  93 NW9       29.92S WCI  34

...WESTERN AND NORTH CENTRAL NEBRASKA...

CITY           SKY/WX    TMP DP  RH WIND       PRES   REMARKS
VALENTINE      MOCLDY    52  49  89 NW8       29.83S
AINSWORTH      MOCLDY    55  52  91 NW8       29.82R
ONEILL         RAIN      57  56  95 W9        29.77S
BROKEN BOW     RAIN      55  53  93 W7        29.81S FOG
IMPERIAL       CLEAR     49  45  86 NW9       29.89R
NORTH PLATTE   MOCLDY    49  48  97 NW3       29.85S
MCCOOK         PTCLDY    52  51  97 NW9       29.85R

...EASTERN NEBRASKA...

CITY           SKY/WX    TMP DP  RH WIND       PRES   REMARKS
NORFOLK        LGT RAIN  58  56  93 W12       29.69F
SO SIOUX CITY  LGT RAIN  63  60  90 S8        29.72R
TEKAMAH        CLOUDY    61  58  90 SW10      29.73R
COLUMBUS       MOCLDY    57  50  77 W6        29.74F
ALBION         RAIN      56  55  93 NW10      29.74S
OMAHA EPPLEY   CLOUDY    62  58  86 SW9       29.74R
OFFUTT AFB     PTCLDY    61  60  97 S9        29.74R
MILLARD        CLOUDY    62  60  91 S5        29.74S
LINCOLN        PTCLDY    57  55  93 CALM      29.75S
NEBRASKA CITY  CLOUDY    59  59 100 S3        29.75S
BEATRICE       CLOUDY    58  57  97 NW3       29.75R
FALLS CITY     CLOUDY    59  58  96 S3        29.75R

...NORTHERN KANSAS...

CITY           SKY/WX    TMP DP  RH WIND       PRES   REMARKS
GOODLAND       CLEAR     47  44  90 W10       29.90R
HILL CITY      CLOUDY    51  49  92 W5        29.82R
NORTON         MOSUNNY   54  50  87 NW6       29.81R
PHILLIPSBURG   MOCLDY    57  57 100 W7        29.80R
SMITH CENTER   LGT RAIN  54  54 100 SW5       29.79R
BELOIT         MOCLDY    55  54  94 CALM      29.76R
HAYS           CLEAR     52  45  76 W7        29.80F
RUSSELL        PTCLDY    54  53  97 SW6       29.78R
CONCORDIA      CLOUDY    58  56  93 NW6       29.75R
SALINA         CLOUDY    60  58  92 W6        29.77R
TOPEKA         CLOUDY    60  58  92 E7        29.74F



USA.gov is the U.S. government's official web portal to all federal, state and local government web resources and services.